BREEZE-M R/B, 42935

Orbit data source: Space-Track

BREEZE-M R/B, 42935 is space debris in HEO originally from a launch on Mon, 11 Sep 2017 UTC launched from the Tyuratam Missile And Space Complex (TTMTR). Debris objects in space refer to the collection of defunct objects orbiting the Earth. Examples of debris include non-operational satellites, rocket bodies, and fragments generated from explosions, collisions, or faulty payload assembly.

Loading next visibility...
BREEZE-M R/B details
Identifier
42935, 2017-053B
Orbit
HEO
Last TLE update20 hours ago
Origin
Flag of CISKhrunichev (CIS)
ManufacturerKhrunichev
MissionSpacecraft
Bus & MotorBRIZ, Unknown motor
Mass~1,600 kg wet, 1,600 kg dry
Launch date (UTC)
2017-09-11 (7 years ago)
Launch vehicleUnknown
Launch site
Tyuratam Missile And Space Complex (TTMTR)
Object type
Payload
Rocket body
Debris
Shape & HBRCyl, 4 m
Radar Cross Section14.451 m², Large (>1 m²)

Expand to show TLE details & history

TLE from 20 hours ago
0 BREEZE-M R/B
1 42935U 17053B   24360.66299412 -.00000041  00000-0  00000+0 0  9998
2 42935  22.6530 152.9827 5943401 150.4406 263.3177  2.19137500 58339
Epoch: 2024-12-25T15:54Z
Definitive object data (Epoch: 2024-12-25T15:54:42.691Z)
Latitude-0.00007°
Longitude179.65387°
Altitude27,113.636 km
Speed2.808 km/s
True Right ascension10h 11m 56s
True Declination0° 00' 00"
Sunlit
Object was in daylight at TLE epoch
Visualization TLE readout
Latitude-8.40785°
Longitude158.74692°
Altitude33,109.463 km
Speed2.066 km/s
Apparent Right ascension08h 28m 54s
Apparent Declination-15° 34' 15"
Sunlit
Object is in daylight
Visualization observer readout
Local Sidereal Time11:18:31
Azimuth224.447° SW
Elevation21.92°
Doppler factor1
Orbital elements
Apogee altitude33,544.347 km
Perigee altitude3,779.64 km
Semi-major axis25,040.13 km
Eccentricity0.5943401
Inclination22.653°
RAAN152.9827°
Arg. of periapsis150.4406°
True anomaly209.61511°
Mean anomaly263.3177°
Eccentric anomaly235.31575°
Mean motion0.54776 °/min
BSTARUnknown
Orbital period657.23 mins
Loading maneuver chart data...
Loading historical data...
Loading historical data...
Loading historical data...
Loading historical data...
Loading historical data...
Loading historical data...
Loading historical data...
Other satellites on launch #53 in the year 2017 (2017-09-11 UTC)

BREEZE-M R/B Visibility forecast

Observer location: undefined°, undefined

Span
Click to sort rows by Start time (UTC) header in descending order
Start Az.
Max El. time (UTC)
Max El. Az.
Max El.
End time (UTC)
End Az.
279 mins2024-12-26 11:57:05.807Z224.434° SW2024-12-26 16:13:05.807Z184.143° SSW40.225°2024-12-26 16:36:05.807Z108.527° ESE
414 mins2024-12-27 05:03:05.807Z188.088° SSW2024-12-27 11:57:05.807Z202.143° SSW33.271°2024-12-27 11:57:05.807Z202.143° SSW
|